EA7RX-13 Weather Reports


time (UTC)temp
C
wind
direction
speed
KPH
gust
KPH
rain 1hr
cm
rain 24hr
cm
rain mn
cm
humidity
%
barometer
mb
20260507150351 24 0.0 0.0 0.00 0.00 0.00 61 1006.8
20260507145351 25 0.0 0.0 0.00 0.00 0.00 60 1006.8
20260507144351 25 0.0 0.0 0.00 0.00 0.00 57 1007.0
20260507143351 23 0.0 0.0 0.00 0.00 0.00 70 1007.3
20260507142351 23 0.0 0.0 0.00 0.00 0.00 10 1007.7
20260507141351 22 0.0 0.0 0.00 0.00 0.00 10 1007.8
20260507140351 22 0.0 0.0 0.00 0.00 0.00 10 1008.0
20260507135351 20 0.0 0.0 0.00 0.00 0.00 10 1008.2
20260507134351 17 0.0 0.0 0.00 0.00 0.00 10 1009.1
20260507133351 18 0.0 0.0 0.00 0.00 0.00 10 1008.8
20260507132351 20 0.0 0.0 0.00 0.00 0.00 73 1008.7
20260507131351 22 0.0 0.0 0.00 0.00 0.00 50 1007.9
20260507130351 23 0.0 0.0 0.00 0.00 0.00 45 1007.7
20260507125351 25 0.0 0.0 0.00 0.00 0.00 44 1007.2
20260507124351 25 0.0 0.0 0.00 0.00 0.00 42 1007.3
20260507123351 26 0.0 0.0 0.00 0.00 0.00 41 1007.3
20260507122351 23 0.0 0.0 0.00 0.00 0.00 45 1007.9
20260507121351 23 0.0 0.0 0.00 0.00 0.00 45 1008.0
20260507120351 26 0.0 0.0 0.00 0.00 0.00 43 1007.7
20260507115351 26 0.0 0.0 0.00 0.00 0.00 42 1007.9
20260507114351 25 0.0 0.0 0.00 0.00 0.00 44 1008.2
20260507113351 25 0.0 0.0 0.00 0.00 0.00 45 1008.3
20260507112351 25 0.0 0.0 0.00 0.00 0.00 43 1008.5
20260507111351 25 0.0 0.0 0.00 0.00 0.00 45 1008.5
20260507110351 25 0.0 0.0 0.00 0.00 0.00 43 1008.8
20260507105351 23 0.0 0.0 0.00 0.00 0.00 47 1008.9
20260507104351 24 0.0 0.0 0.00 0.00 0.00 50 1008.8
20260507103351 23 0.0 0.0 0.00 0.00 0.00 52 1009.0
20260507102351 22 0.0 0.0 0.00 0.00 0.00 56 1009.3
20260507101351 21 0.0 0.0 0.00 0.00 0.00 60 1009.6
20260507100351 21 0.0 0.0 0.00 0.00 0.00 62 1009.8
20260507095351 21 0.0 0.0 0.00 0.00 0.00 65 1009.8
20260507094351 19 0.0 0.0 0.00 0.00 0.00 71 1010.0
20260507093351 19 0.0 0.0 0.00 0.00 0.00 73 1010.1
20260507092351 19 0.0 0.0 0.00 0.00 0.00 73 1009.9
20260507091351 18 0.0 0.0 0.00 0.00 0.00 88 1010.1
20260507090351 17 0.0 0.0 0.00 0.00 0.00 92 1010.1
20260507085351 18 0.0 0.0 0.00 0.00 0.00 70 1010.2
20260507084351 18 0.0 0.0 0.00 0.00 0.00 66 1010.3
20260507083351 18 0.0 0.0 0.00 0.00 0.00 64 1010.1
20260507082351 18 0.0 0.0 0.00 0.00 0.00 66 1010.3
20260507081351 18 0.0 0.0 0.00 0.00 0.00 69 1010.3
20260507080351 18 0.0 0.0 0.00 0.00 0.00 67 1010.2
20260507075351 18 0.0 0.0 0.00 0.00 0.00 64 1010.0
20260507074351 18 0.0 0.0 0.00 0.00 0.00 79 1010.3
20260507073351 17 0.0 0.0 0.00 0.00 0.00 89 1010.3
20260507072351 17 0.0 0.0 0.00 0.00 0.00 10 1010.3
20260507071351 16 0.0 0.0 0.00 0.00 0.00 10 1010.3
20260507070351 16 0.0 0.0 0.00 0.00 0.00 10 1010.3
20260507065351 16 0.0 0.0 0.00 0.00 0.00 10 1010.4
20260507064351 15 0.0 0.0 0.00 0.00 0.00 10 1010.4
20260507063351 15 0.0 0.0 0.00 0.00 0.00 10 1010.2
20260507062351 14 0.0 0.0 0.00 0.00 0.00 10 1010.2
20260507061351 13 0.0 0.0 0.00 0.00 0.00 10 1010.2
20260507060351 13 0.0 0.0 0.00 0.00 0.00 10 1010.3
20260507055351 12 0.0 0.0 0.00 0.00 0.00 10 1010.3
20260507054351 12 0.0 0.0 0.00 0.00 0.00 10 1010.3
20260507053351 12 0.0 0.0 0.00 0.00 0.00 10 1010.2
20260507052351 12 0.0 0.0 0.00 0.00 0.00 10 1010.1
20260507051351 12 0.0 0.0 0.00 0.00 0.00 10 1010.0
20260507050351 12 0.0 0.0 0.00 0.00 0.00 10 1009.9
20260507045351 13 0.0 0.0 0.00 0.00 0.00 10 1009.7
20260507044351 12 0.0 0.0 0.00 0.00 0.00 10 1009.8
20260507043351 13 0.0 0.0 0.00 0.00 0.00 10 1009.6
20260507042351 13 0.0 0.0 0.00 0.00 0.00 10 1009.6
20260507041351 13 0.0 0.0 0.00 0.00 0.00 10 1009.5
20260507040351 13 0.0 0.0 0.00 0.00 0.00 10 1009.4
20260507035351 13 0.0 0.0 0.00 0.00 0.00 10 1009.4
20260507034351 13 0.0 0.0 0.00 0.00 0.00 10 1009.4
20260507033351 13 0.0 0.0 0.00 0.00 0.00 10 1009.4
20260507032351 14 0.0 0.0 0.00 0.00 0.00 10 1009.1
20260507031351 14 0.0 0.0 0.00 0.00 0.00 10 1009.2
20260507030351 14 0.0 0.0 0.00 0.00 0.00 10 1009.1
20260507025351 14 0.0 0.0 0.00 0.00 0.00 10 1009.1
20260507024351 14 0.0 0.0 0.00 0.00 0.00 10 1009.2
20260507023351 14 0.0 0.0 0.00 0.00 0.00 10 1009.1
20260507022351 15 0.0 0.0 0.00 0.00 0.00 10 1009.1
20260507021351 15 0.0 0.0 0.00 0.00 0.00 10 1008.9
20260507020351 15 0.0 0.0 0.00 0.00 0.00 10 1009.0
20260507015351 15 0.0 0.0 0.00 0.00 0.00 10 1009.0
20260507014351 15 0.0 0.0 0.00 0.00 0.00 10 1009.1
20260507013351 15 0.0 0.0 0.00 0.00 0.00 10 1008.9
20260507012351 15 0.0 0.0 0.00 0.00 0.00 89 1009.0
20260507011351 15 0.0 0.0 0.00 0.00 0.00 10 1009.0
20260507010351 16 0.0 0.0 0.00 0.00 0.00 77 1009.0
20260507005351 16 0.0 0.0 0.00 0.00 0.00 74 1009.1
20260507004351 16 0.0 0.0 0.00 0.00 0.00 72 1008.8
20260507003351 17 0.0 0.0 0.00 0.00 0.00 66 1008.8
20260507002351 17 0.0 0.0 0.00 0.00 0.00 59 1008.8
20260507001351 17 0.0 0.0 0.00 0.00 0.00 58 1009.0
20260507000351 16 0.0 0.0 0.00 0.00 0.00 64 1009.2
20260506235351 17 0.0 0.0 0.00 0.00 0.00 62 1008.8
20260506234351 17 0.0 0.0 0.00 0.00 0.00 62 1008.8
20260506233351 17 0.0 0.0 0.00 0.00 0.00 60 1008.8
20260506232351 17 0.0 0.0 0.00 0.00 0.00 64 1008.9
20260506231351 17 0.0 0.0 0.00 0.00 0.00 60 1008.8
20260506230351 17 0.0 0.0 0.00 0.00 0.00 58 1008.6
20260506225351 17 0.0 0.0 0.00 0.00 0.00 59 1008.5
20260506224351 17 0.0 0.0 0.00 0.00 0.00 64 1008.6
20260506223351 16 0.0 0.0 0.00 0.00 0.00 60 1008.5
20260506222351 17 0.0 0.0 0.00 0.00 0.00 60 1008.5
20260506221351 17 0.0 0.0 0.00 0.00 0.00 59 1008.4
20260506220351 17 0.0 0.0 0.00 0.00 0.00 61 1008.5
20260506215351 17 0.0 0.0 0.00 0.00 0.00 65 1008.8
20260506214351 16 0.0 0.0 0.00 0.00 0.00 67 1008.9
20260506213351 16 0.0 0.0 0.00 0.00 0.00 71 1008.8
20260506212351 16 0.0 0.0 0.00 0.00 0.00 75 1008.7
20260506211351 16 0.0 0.0 0.00 0.00 0.00 80 1008.7
20260506210351 17 0.0 0.0 0.00 0.00 0.00 68 1008.5
20260506205351 17 0.0 0.0 0.00 0.00 0.00 70 1008.4
20260506204351 17 0.0 0.0 0.00 0.00 0.00 72 1008.4
20260506203351 17 0.0 0.0 0.00 0.00 0.00 76 1008.3
20260506202351 17 0.0 0.0 0.00 0.00 0.00 69 1008.2
20260506201351 17 0.0 0.0 0.00 0.00 0.00 70 1008.1
20260506200350 17 0.0 0.0 0.00 0.00 0.00 61 1008.0
20260506195351 17 0.0 0.0 0.00 0.00 0.00 69 1007.8
20260506194351 18 0.0 0.0 0.00 0.00 0.00 72 1007.6
20260506193351 18 0.0 0.0 0.00 0.00 0.00 57 1007.5
20260506192351 19 0.0 0.0 0.00 0.00 0.00 52 1007.3
20260506191350 20 0.0 0.0 0.00 0.00 0.00 46 1007.0
20260506190350 20 0.0 0.0 0.00 0.00 0.00 48 1007.0
20260506185350 21 0.0 0.0 0.00 0.00 0.00 47 1006.9
20260506184351 21 0.0 0.0 0.00 0.00 0.00 43 1006.6
20260506183351 22 0.0 0.0 0.00 0.00 0.00 40 1006.7
20260506182350 22 0.0 0.0 0.00 0.00 0.00 38 1006.7
20260506181351 22 0.0 0.0 0.00 0.00 0.00 39 1006.6
20260506180350 22 0.0 0.0 0.00 0.00 0.00 38 1006.5
20260506175350 22 0.0 0.0 0.00 0.00 0.00 36 1006.7
20260506174350 22 0.0 0.0 0.00 0.00 0.00 39 1006.6
20260506173351 22 0.0 0.0 0.00 0.00 0.00 42 1006.6
20260506172350 23 0.0 0.0 0.00 0.00 0.00 37 1006.7
20260506171350 23 0.0 0.0 0.00 0.00 0.00 35 1006.6
20260506170350 23 0.0 0.0 0.00 0.00 0.00 39 1006.8
20260506165350 24 0.0 0.0 0.00 0.00 0.00 37 1006.6
20260506164350 24 0.0 0.0 0.00 0.00 0.00 37 1006.5
20260506163350 24 0.0 0.0 0.00 0.00 0.00 38 1006.6
20260506162350 23 0.0 0.0 0.00 0.00 0.00 36 1006.9
20260506161350 23 0.0 0.0 0.00 0.00 0.00 37 1006.7
20260506160350 25 0.0 0.0 0.00 0.00 0.00 36 1006.6
20260506155350 25 0.0 0.0 0.00 0.00 0.00 36 1006.6
20260506154350 25 0.0 0.0 0.00 0.00 0.00 35 1006.7
20260506153350 24 0.0 0.0 0.00 0.00 0.00 37 1006.9
20260506152350 25 0.0 0.0 0.00 0.00 0.00 38 1006.9
20260506151350 24 0.0 0.0 0.00 0.00 0.00 37 1007.0